Flag for Norway Weather past 2 weeks in Bryne, Norway

Now
58 °F

Cool.


Feels Like: 57 °F
Forecast: 53 / 59 °F
Wind: 6 mph from Southeast

Location: Obrestad

Current Time: Sep 30, 2014 at 6:18:48 PM

Latest Report: Sep 30, 2014 at 5:00 PM


Visibility: N/A

Pressure: 30.23 "Hg

Humidity: 70%

Dew point: 48 °F

Location of BryneLocation

Historic Weather in Bryne — Graph

°F

Bryne temperature yesterday

Maximum temperature yesterday: 60 °F (at 2:00 PM)
Minimum temperature yesterday: 49 °F (at 9:00 AM)
Average temperature yesterday: 55 °F

Past Weeks' High & Low Weather Summary

 TemperatureHumidityPressure
High69 °F (Sep 16, 2:00 PM)97% (Sep 25, 5:00 PM)30.29 "Hg (Sep 25, 5:00 PM)
Low44 °F (Sep 23, 2:00 AM)37% (Sep 16, 3:00 PM)29.67 "Hg (Sep 24, 10:00 PM)
Average56 °F76%30.02 "Hg
* Reported Sep 15 5:00 PM — Sep 30 5:00 PM, Bryne, Weather by CustomWeather, © 2014

Note: Actual official high and low records may vary slightly from our data, if they occured in-between our weather recording intervals... More about our weather records

Advertising

Bryne weather history for previous 24 hours

 ConditionsComfort  
Time TempWeatherWind HumidityBarometerVisibility
5:00 PM
Sep 30
58 °FCool.6 mph70%30.23 "HgN/A
4:00 PM56 °FCool.8 mph79%30.23 "HgN/A
3:00 PM56 °FCool.10 mph81%30.23 "HgN/A
2:00 PM58 °FCool.10 mph75%30.23 "HgN/A
1:00 PM58 °FCool.9 mph76%30.22 "HgN/A
12:00 PM58 °FCool.9 mph76%30.21 "HgN/A
11:00 AM57 °FCool.9 mph71%30.20 "HgN/A
10:00 AM56 °FCool.8 mph69%30.19 "HgN/A
9:00 AM56 °FCool.8 mph73%30.19 "HgN/A
8:00 AM57 °FCool.8 mph63%30.17 "HgN/A
7:00 AM58 °FRefreshingly cool.9 mph59%30.16 "HgN/A
6:00 AM57 °FCool.8 mph63%30.17 "HgN/A
5:00 AM56 °FCool.7 mph71%30.17 "HgN/A
4:00 AM56 °FCool.8 mph72%30.17 "HgN/A
3:00 AM56 °FCool.6 mph78%30.17 "HgN/A
2:00 AM55 °FCool.5 mph83%30.18 "HgN/A
1:00 AM55 °FCool.5 mph82%30.18 "HgN/A
12:00 AM54 °FCool.6 mph86%30.18 "HgN/A
11:00 PM
Sep 29
53 °FCool.3 mph93%30.19 "HgN/A
10:00 PM50 °FCool.2 mph92%30.19 "HgN/A
9:00 PM53 °FCool.1 mph91%30.18 "HgN/A
8:00 PM53 °FCool.1 mph89%30.17 "HgN/A
7:00 PM56 °FCool.2 mph84%30.16 "HgN/A
6:00 PM57 °FCool.1 mph81%30.16 "HgN/A
Weather by CustomWeather, © 2014

See weather overviewHow to use our weather pages